Tracking 17884 objects as of 6-December-2016
HD Live streaming from Space Station
objects crossing your sky now

HYLAS 2

Track HYLAS 2 now!
HYLAS 2 is classified as:


NORAD ID: 38741
Int'l Code: 2012-043B
Perigee: 35,786.9 km
Apogee: 35,801.0 km
Inclination: 0.0 °
Period: 1,436.1 minutes
Semi major axis: 42164 km
RCS: 1.4658 m2 (large)
Launch date: August 2, 2012
Source: United Kingdom (UK)
Launch site: FRENCH GUIANA (FRGUI)

HYLAS 2, owned by Avanti Communications of London, carries 24 Ka-band transponders and is designed to provide broadband links to African customers. Hylas 2 is likely to be operated at 31 degrees east.
Your satellite tracking list
Your tracking list is empty





NASA's NSSDC Master Catalog

Two Line Element Set (TLE):
1 38741U 12043B   16339.70833308 +.00000162 +00000-0 +00000-0 0  9996
2 38741 000.0206 334.7763 0001680 270.9882 114.2179 01.00271091015863
Source of the keplerian elements: AFSPC